Weather History for White Rock, BC

Change the Weather History Date:

Wednesday, February 6, 2013

  Actual Average Record
Temperature  
Mean Temperature 46 °F -  
Max Temperature 48 °F - - ()
Min Temperature 43 °F - - ()
Degree Days  
Heating Degree Days 20    
Moisture  
Dew Point 40 °F    
Average Humidity 81    
Maximum Humidity 89    
Minimum Humidity 69    
Precipitation  
Precipitation 0.04 in - - ()
Sea Level Pressure  
Sea Level Pressure 29.95 in    
Wind  
Wind Speed 5 mph ()    
Max Wind Speed 8 mph    
Max Gust Speed -    
T = Trace of Precipitation, MM = Missing Value Source: Averaged Metar Reports

Daily Weather History Graph

Daily Weather History Graph

Search for Another Location

Airport:

Trip Planner

Search our weather history database for the weather conditions in past years. The results will help you decide how hot, cold, wet, or windy it might be!

Date:

Astronomy

Feb. 06, 2013 Rise Set
Actual Time 7:33 AM PST 5:17 PM PST
Civil Twilight 7:00 AM PST 5:50 PM PST
Nautical Twilight 6:22 AM PST 6:28 PM PST
Astronomical Twilight 5:45 AM PST 7:05 PM PST
Moon 4:33 AM PST (2/6) 1:31 PM PST (2/6)
Length of Visible Light 10h 50m
Length of Day
9h 43m
Waning Crescent, 16% of the Moon is Illuminated
Feb 6
Waning Crescent
Feb 9
New
Feb 17
First Quarter
Feb 25
Full
Mar 4
Last Quarter

Hourly Weather History & Observations

Time (PST) Temp. Windchill Dew Point Humidity Pressure Visibility Wind Dir Wind Speed Gust Speed Precip Events Conditions
12:00 AM 46.0 °F 42.5 °F 41.0 °F 83% 29.90 in - SSE 6.9 mph - N/A   Unknown
1:00 AM 46.0 °F 41.9 °F 41.4 °F 84% 29.92 in - South 8.1 mph - N/A   Unknown
2:00 AM 46.0 °F 43.1 °F 40.6 °F 81% 29.94 in - South 5.8 mph - N/A   Unknown
3:00 AM 46.2 °F 43.3 °F 40.3 °F 80% 29.95 in - South 5.8 mph - N/A   Unknown
4:00 AM 46 °F - 41 °F 76% 29.96 in - South 5.8 mph - -  
4:00 AM 45.7 °F 42.7 °F 40.8 °F 83% 29.96 in - South 5.8 mph - N/A   Unknown
5:00 AM 45.5 °F 41.3 °F 40.6 °F 83% 29.99 in - SSE 8.1 mph - N/A   Unknown
6:00 AM 45.1 °F 42.8 °F 40.5 °F 84% 29.99 in - SSE 4.6 mph - N/A   Unknown
7:00 AM 45.5 °F 41.3 °F 40.3 °F 82% 30.00 in - SSE 8.1 mph - N/A   Unknown
8:00 AM 45.0 °F 41.8 °F 39.9 °F 82% 30.01 in - SSE 5.8 mph - N/A   Unknown
9:00 AM 44.8 °F 43.3 °F 39.9 °F 83% 30.02 in - SSE 3.5 mph - N/A   Unknown
10:00 AM 46 °F - 40 °F 74% 30.03 in - SSE 5.8 mph - -  
10:00 AM 46.4 °F 43.5 °F 40.5 °F 80% 30.03 in - SSE 5.8 mph - N/A   Unknown
11:00 AM 46.2 °F 44.1 °F 40.1 °F 79% 30.02 in - SSE 4.6 mph - N/A   Unknown
12:00 PM 47.1 °F - 39.2 °F 74% 30.01 in - SE 6.9 mph - N/A   Unknown
1:00 PM 47.5 °F - 39.0 °F 72% 29.99 in - SSE 4.6 mph - N/A   Unknown
2:00 PM 48.0 °F - 38.1 °F 69% 29.98 in - SSE 6.9 mph - N/A   Unknown
3:00 PM 47.1 °F - 39.2 °F 74% 29.97 in - SSE 5.8 mph - N/A   Unknown
4:00 PM 46 °F - 40 °F 74% 29.96 in - East 4.6 mph - -  
4:00 PM 45.5 °F 43.2 °F 40.3 °F 82% 29.96 in - East 4.6 mph - 0.02 in   Unknown
5:00 PM 44.4 °F 42.0 °F 40.3 °F 85% 29.94 in - ENE 4.6 mph - 0.02 in   Unknown
6:00 PM 44.8 °F 41.0 °F 39.7 °F 82% 29.92 in - ENE 6.9 mph - N/A   Unknown
7:00 PM 43.7 °F 40.3 °F 40.1 °F 87% 29.90 in - ENE 5.8 mph - 0.02 in   Unknown
8:00 PM 43.0 °F 40.3 °F 39.9 °F 89% 29.88 in - NE 4.6 mph - 0.02 in   Unknown
9:00 PM 43.3 °F 39.2 °F 39.9 °F 88% 29.85 in - NE 6.9 mph - N/A   Unknown
10:00 PM 43 °F - 39 °F 82% 29.82 in - NE 5.8 mph - -  
10:00 PM 43.0 °F 39.5 °F 39.4 °F 87% 29.82 in - NE 5.8 mph - N/A   Unknown
11:00 PM 43.2 °F 39.0 °F 39.0 °F 85% 29.81 in - ENE 6.9 mph - N/A   Unknown